This is the latest recevied weather packets stored in our database for station/object K0SNA. If no packets are shown the sender has not sent any weather packets the latest 10 day(s).
| Time | Temp. | Humidity | Pressure | Rain* | Wind** | Luminosity | Snow |
|---|---|---|---|---|---|---|---|
| 1777561929 | 6.11° C | 55% | 1018.9 hPa | 0 mm | - | 133 W/m² | - |
| 1777561626 | 6.11° C | 54% | 1018.9 hPa | 0 mm | - | 552 W/m² | - |
| 1777561321 | 6.11° C | 55% | 1018.8 hPa | 0 mm | - | 557 W/m² | - |
| 1777561016 | 6.11° C | 55% | 1019 hPa | 0 mm | - | 544 W/m² | - |
| 1777560711 | 6.11° C | 55% | 1019 hPa | 0 mm | - | 191 W/m² | - |
| 1777560409 | 6.11° C | 57% | 1018.9 hPa | 0 mm | - | 481 W/m² | - |
| 1777560107 | 6.11° C | 56% | 1018.9 hPa | 0 mm | - | 431 W/m² | - |
| 1777559803 | 6.11° C | 56% | 1019 hPa | 0 mm | - | 407 W/m² | - |
| 1777559500 | 5.56° C | 58% | 1019.1 hPa | 0 mm | - | 392 W/m² | - |
| 1777559196 | 5.56° C | 58% | 1019 hPa | 0 mm | - | 382 W/m² | - |
| 1777558891 | 5.56° C | 58% | 1018.8 hPa | 0 mm | - | 366 W/m² | - |
| 1777558588 | 5° C | 58% | 1019.1 hPa | 0 mm | - | 350 W/m² | - |
| 1777558283 | 5° C | 59% | 1019.1 hPa | 0 mm | - | 338 W/m² | - |
| 1777557980 | 5° C | 61% | 1019.2 hPa | 0 mm | - | 325 W/m² | - |
| 1777557677 | 5° C | 60% | 1019.2 hPa | 0 mm | - | 313 W/m² | - |
| 1777557373 | 5° C | 60% | 1019.1 hPa | 0 mm | - | 298 W/m² | - |
| 1777557069 | 5° C | 60% | 1019.1 hPa | 0 mm | - | 283 W/m² | - |
| 1777556765 | 4.44° C | 62% | 1019.1 hPa | 0 mm | - | 271 W/m² | - |
| 1777556462 | 4.44° C | 63% | 1019.2 hPa | 0 mm | - | 258 W/m² | - |
| 1777556161 | 3.89° C | 63% | 1019.1 hPa | 0 mm | - | 246 W/m² | - |
| 1777555857 | 3.89° C | 63% | 1019 hPa | 0 mm | - | 231 W/m² | - |
| 1777555553 | 3.89° C | 64% | 1018.7 hPa | 0 mm | - | 217 W/m² | - |
| 1777555250 | 3.89° C | 64% | 1019.1 hPa | 0 mm | - | 204 W/m² | - |
| 1777554947 | 3.89° C | 64% | 1018.9 hPa | 0 mm | - | 192 W/m² | - |
| 1777554643 | 3.89° C | 64% | 1019 hPa | 0 mm | - | 179 W/m² | - |
* Rain latest hour (hover to see other rain measurements)
** Current wind speed in m/s (hover to see current wind gust speed)